This is the latest recevied weather packets stored in our database for station/object W9KHP-1. If no packets are shown the sender has not sent any weather packets the latest 1 day(s).
| Time | Temp. | Humidity | Pressure | Rain* | Wind** | Luminosity | Snow |
|---|---|---|---|---|---|---|---|
| 1778071395 | 8.89° C | 99% | 1016.1 hPa | 0 mm | - | 75 W/m² | - |
| 1778071093 | 8.89° C | 99% | 1016 hPa | 0 mm | - | 83 W/m² | - |
| 1778070185 | 8.33° C | 99% | 1015.7 hPa | 0 mm | - | 75 W/m² | - |
| 1778068672 | 7.78° C | 99% | 1014.8 hPa | 0 mm | - | 43 W/m² | - |
| 1778068370 | 7.78° C | 99% | 1014.7 hPa | 0 mm | - | 40 W/m² | - |
| 1778067765 | 7.78° C | 99% | 1015.3 hPa | 0 mm | - | 33 W/m² | - |
| 1778065950 | 7.78° C | 99% | 1014.7 hPa | 0 mm | - | 7 W/m² | - |
| 1778065646 | 7.78° C | 99% | 1014.7 hPa | 0 mm | - | 3 W/m² | - |
| 1778065344 | 7.78° C | 99% | 1014.9 hPa | 0 mm | - | 2 W/m² | - |
| 1778064133 | 7.78° C | 99% | 1014.4 hPa | 0 mm | - | 0 W/m² | - |
| 1778062619 | 7.22° C | 99% | 1013.7 hPa | 0 mm | - | 0 W/m² | - |
| 1778062014 | 7.22° C | 99% | 1013.7 hPa | 0 mm | - | 0 W/m² | - |
| 1778061410 | 7.22° C | 99% | 1013.3 hPa | 0 mm | - | 0 W/m² | - |
| 1778061106 | 7.22° C | 99% | 1013.3 hPa | 0 mm | - | 0 W/m² | - |
| 1778060200 | 7.78° C | 99% | 1013.5 hPa | 0 mm | - | 0 W/m² | - |
| 1778057777 | 8.33° C | 99% | 1012.7 hPa | 0 mm | - | 0 W/m² | - |
| 1778057474 | 8.33° C | 99% | 1012.7 hPa | 0 mm | - | 0 W/m² | - |
| 1778056867 | 8.89° C | 99% | 1013.1 hPa | 0 mm | - | 0 W/m² | - |
| 1778055958 | 8.89° C | 99% | 1012.5 hPa | 0 mm | - | 0 W/m² | - |
| 1778055654 | 8.89° C | 99% | 1012.7 hPa | 0 mm | - | 0 W/m² | - |
| 1778055352 | 8.89° C | 99% | 1012.9 hPa | 0 mm | - | 0 W/m² | - |
| 1778055049 | 8.89° C | 99% | 1012.7 hPa | 0 mm | - | 0 W/m² | - |
| 1778054747 | 8.89° C | 99% | 1012.5 hPa | 0 mm | - | 0 W/m² | - |
| 1778053838 | 8.89° C | 99% | 1012.3 hPa | 0 mm | - | 0 W/m² | - |
| 1778053536 | 8.89° C | 99% | 1012.3 hPa | 0 mm | - | 0 W/m² | - |
* Rain latest hour (hover to see other rain measurements)
** Current wind speed in m/s (hover to see current wind gust speed)